This is the latest recevied weather packets stored in our database for station/object WB4YDL. If no packets are shown the sender has not sent any weather packets the latest 10 day(s).
| Time | Temp. | Humidity | Pressure | Rain* | Wind** | Luminosity | Snow |
|---|---|---|---|---|---|---|---|
| 1777596977 | 13.89° C | 76% | 1010.4 hPa | 0 mm | - | 0 W/m² | - |
| 1777596674 | 13.89° C | 74% | 1010.3 hPa | 0 mm | - | 1 W/m² | - |
| 1777596371 | 13.89° C | 72% | 1010.3 hPa | 0 mm | - | 2 W/m² | - |
| 1777596069 | 14.44° C | 72% | 1010.2 hPa | 0 mm | - | 3 W/m² | - |
| 1777595764 | 14.44° C | 72% | 1010.1 hPa | 0 mm | - | 5 W/m² | - |
| 1777595459 | 15° C | 71% | 1010.1 hPa | 0 mm | - | 8 W/m² | - |
| 1777595155 | 15° C | 71% | 1010 hPa | 0 mm | - | 12 W/m² | - |
| 1777594852 | 15.56° C | 70% | 1010 hPa | 0 mm | - | 17 W/m² | - |
| 1777594548 | 16.11° C | 59% | 1009.8 hPa | 0 mm | - | 21 W/m² | - |
| 1777594244 | 16.67° C | 59% | 1010.1 hPa | 0 mm | - | 26 W/m² | - |
| 1777593940 | 16.67° C | 55% | 1009.9 hPa | 0 mm | - | 37 W/m² | - |
| 1777593637 | 16.67° C | 51% | 1010 hPa | 0 mm | - | 45 W/m² | - |
| 1777593333 | 16.67° C | 52% | 1010 hPa | 0 mm | - | 48 W/m² | - |
| 1777593027 | 17.22° C | 51% | 1009.8 hPa | 0 mm | - | 47 W/m² | - |
| 1777592726 | 17.78° C | 51% | 1009.9 hPa | 0 mm | - | 45 W/m² | - |
| 1777592423 | 17.78° C | 49% | 1010.2 hPa | 0 mm | - | 56 W/m² | - |
| 1777592118 | 18.33° C | 49% | 1009.9 hPa | 0 mm | - | 77 W/m² | - |
| 1777591816 | 17.78° C | 48% | 1010 hPa | 0 mm | - | 121 W/m² | - |
| 1777591511 | 17.78° C | 50% | 1010.3 hPa | 0 mm | - | 107 W/m² | - |
| 1777591208 | 17.78° C | 51% | 1010.1 hPa | 0 mm | - | 87 W/m² | - |
| 1777590902 | 17.78° C | 50% | 1010.2 hPa | 0 mm | - | 118 W/m² | - |
| 1777590598 | 17.78° C | 48% | 1010.1 hPa | 0 mm | - | 124 W/m² | - |
| 1777590295 | 17.78° C | 54% | 1010 hPa | 0 mm | - | 96 W/m² | - |
| 1777589992 | 17.78° C | 48% | 1010.1 hPa | 0 mm | - | 97 W/m² | - |
| 1777589688 | 17.78° C | 49% | 1010.2 hPa | 0 mm | - | 184 W/m² | - |
* Rain latest hour (hover to see other rain measurements)
** Current wind speed in m/s (hover to see current wind gust speed)